sat.trackr.live / text

‹ back to catalog

SINOD-D 1

NORAD 40968 · 2015-058E

PAYLOAD ACTIVE UNKNOWN

§ Identity

Operator
Country
US
Launch date
2015-10-08
Launch site
AFWTR
Launch vehicle
Mass (kg)
RCS (m²)

Purposes: tech_demo

External: N2YO · Heavens-Above · Gunter

§ Orbital elements

Epoch: 2026-09-20T04:32:36.483360Z

Period
96.22 min
Inclination
64.7744°
Eccentricity
0.0127575
Mean motion
14.96520052 rev/d
Perigee alt
488.9 km
Apogee alt
666.4 km
Semi-major
6,955.8 km
B*
1.4500e-4
RAAN
321.2382°
Arg perigee
17.2660°
Mean anomaly
343.2733°
Rev number
13,087

§ Raw data

SINOD-D 11 40968U 15058E   26263.18931115  .00001759  00000+0  14500-3 0  99982 40968  64.7744 321.2382 0127575  17.2660 343.2733 14.96520052130879

JSON: /api/v1/satellites/40968 · /tle

For live sub-satellite position, see the globe view (requires WebGL).

§ Visibility from observer

Set your observer location to see the next 7 days of passes ≥ 10°. The values pass through the URL so the page stays shareable.

No JS? Fill the form by hand. The geolocation button needs JavaScript.